DW2485 Weather Reports


time (UTC)temp
C
wind
direction
speed
KPH
gust
KPH
rain 1hr
cm
rain 24hr
cm
rain mn
cm
humidity
%
barometer
mb
20260510160504 17 15 16.1 27.4 0.00 0.00 0.00 100 1022.8
20260510155004 17 286 19.3 27.4 0.00 0.00 0.00 100 1022.6
20260510154005 17 329 19.3 25.7 0.00 0.00 0.00 100 1022.5
20260510152505 16 355 16.1 24.1 0.00 0.00 0.00 100 1022.5
20260510151005 16 20 19.3 29.0 0.00 0.00 0.00 100 1022.3
20260510150004 16 12 9.7 19.3 0.00 0.00 0.00 100 1022.4
20260510145505 15 311 9.7 22.5 0.00 0.00 0.00 100 1022.3
20260510145005 15 313 17.7 22.5 0.00 0.00 0.00 100 1022.2
20260510144504 16 333 19.3 25.7 0.00 0.00 0.00 100 1022.2
20260510144004 15 346 9.7 16.1 0.00 0.00 0.00 100 1022.2
20260510143505 15 343 8.0 19.3 0.00 0.00 0.00 100 1022.3
20260510143005 15 301 11.3 19.3 0.00 0.00 0.00 100 1022.3
20260510142504 15 297 9.7 16.1 0.00 0.00 0.00 100 1022.3
20260510140505 14 314 9.7 11.3 0.00 0.00 0.00 100 1022.2
20260510140005 13 23 6.4 9.7 0.00 0.00 0.00 100 1022.1
20260510134005 12 27 3.2 8.0 0.00 0.00 0.00 100 1022.1
20260510133504 12 339 4.8 9.7 0.00 0.00 0.00 100 1022.1
20260510130504 11 349 6.4 14.5 0.00 0.00 0.00 100 1022.0
20260510125505 9 330 3.2 4.8 0.00 0.00 0.00 100 1021.8
20260510124504 8 286 1.6 3.2 0.00 0.00 0.00 100 1022.0
20260510123005 7 298 3.2 4.8 0.00 0.00 0.00 100 1021.8
20260510122004 7 292 4.8 4.8 0.00 0.00 0.00 100 1021.6
20260510121004 6 320 3.2 4.8 0.00 0.00 0.00 100 1021.3
20260510113004 3 305 8.0 8.0 0.00 0.00 0.00 100 1020.8
20260510111504 3 321 9.7 14.5 0.00 0.00 0.00 100 1020.7
20260510111005 3 310 11.3 12.9 0.00 0.00 0.00 100 1020.5
20260510104504 3 285 6.4 9.7 0.00 0.00 0.00 100 1020.5
20260510103005 4 304 8.0 8.0 0.00 0.00 0.00 100 1020.1
20260510102005 4 312 8.0 12.9 0.00 0.00 0.00 100 1019.9
20260510101004 5 314 9.7 12.9 0.00 0.00 0.00 100 1019.9
20260510095505 5 320 11.3 16.1 0.00 0.00 0.00 100 1019.8
20260510095005 5 327 11.3 19.3 0.00 0.00 0.00 100 1019.6
20260510094504 5 331 14.5 19.3 0.00 0.00 0.00 100 1019.7
20260510093504 5 318 9.7 12.9 0.00 0.00 0.00 100 1019.5
20260510092504 5 308 8.0 16.1 0.00 0.00 0.00 100 1019.7
20260510092004 4 313 12.9 16.1 0.00 0.00 0.00 100 1019.6
20260510091504 4 319 9.7 14.5 0.00 0.00 0.00 100 1019.5
20260510090504 4 308 4.8 4.8 0.00 0.00 0.00 100 1019.4
20260510083504 5 312 4.8 4.8 0.00 0.00 0.00 100 1019.3
20260510083004 5 301 3.2 4.8 0.00 0.00 0.00 100 1019.1
20260510080004 6 306 3.2 4.8 0.00 0.00 0.00 100 1018.3
20260510075004 6 290 3.2 4.8 0.00 0.00 0.00 100 1018.2
20260510074504 6 291 3.2 4.8 0.00 0.00 0.00 100 1018.2
20260510074004 6 293 4.8 4.8 0.00 0.00 0.00 100 1018.2
20260510073504 6 293 4.8 8.0 0.00 0.00 0.00 100 1018.2
20260510072504 6 319 4.8 8.0 0.00 0.00 0.00 100 1018.0
20260510071004 6 312 6.4 8.0 0.00 0.00 0.00 100 1018.0
20260510065503 7 317 4.8 8.0 0.00 0.00 0.00 100 1017.7
20260510065004 7 315 6.4 8.0 0.00 0.00 0.00 100 1017.7
20260510064004 7 319 8.0 9.7 0.00 0.00 0.00 100 1017.7
20260510063004 7 320 8.0 11.3 0.00 0.00 0.00 100 1017.5
20260510062504 7 317 6.4 8.0 0.00 0.00 0.00 100 1017.5
20260510061504 7 316 4.8 8.0 0.00 0.00 0.00 100 1017.4
20260510055004 7 323 8.0 8.0 0.00 0.00 0.00 100 1017.1
20260510053504 8 318 4.8 4.8 0.00 0.00 0.00 100 1017.0
20260510052504 8 285 4.8 4.8 0.00 0.00 0.00 100 1016.7
20260510051504 8 285 6.4 8.0 0.00 0.00 0.00 100 1016.6
20260510051004 8 293 4.8 4.8 0.00 0.00 0.00 100 1016.4
20260510050504 8 292 4.8 4.8 0.00 0.00 0.00 100 1016.4
20260510050004 8 290 4.8 4.8 0.00 0.00 0.00 100 1016.4
20260510045004 9 298 4.8 4.8 0.00 0.00 0.00 100 1016.3
20260510044504 9 306 4.8 4.8 0.00 0.00 0.00 100 1016.2
20260510044003 9 302 4.8 4.8 0.00 0.00 0.00 100 1016.0
20260510041004 10 282 4.8 4.8 0.00 0.00 0.00 100 1015.6
20260510040006 10 291 4.8 8.0 0.00 0.00 0.00 100 1015.6
20260510035506 11 299 6.4 8.0 0.00 0.00 0.00 100 1015.5
20260510035005 11 302 4.8 4.8 0.00 0.00 0.00 100 1015.4
20260510034505 11 299 4.8 4.8 0.00 0.00 0.00 100 1015.2
20260510034006 11 313 4.8 4.8 0.00 0.00 0.00 100 1015.2
20260510031505 12 319 4.8 9.7 0.00 0.00 0.00 100 1014.8
20260510025505 12 328 4.8 4.8 0.00 0.00 0.00 100 1014.6
20260510025005 13 321 4.8 8.0 0.00 0.00 0.00 100 1014.5
20260510024506 13 318 4.8 8.0 0.00 0.00 0.00 100 1014.3
20260510024006 13 322 4.8 8.0 0.00 0.00 0.00 100 1014.2
20260510023006 13 314 6.4 12.9 0.00 0.00 0.00 100 1014.1
20260510022005 14 322 9.7 14.5 0.00 0.00 0.00 100 1013.8
20260510021506 14 317 9.7 16.1 0.00 0.00 0.00 100 1013.6
20260510021006 14 317 9.7 14.5 0.00 0.00 0.00 100 1013.6
20260510013005 16 304 9.7 16.1 0.00 0.00 0.00 100 1012.5
20260510012005 16 311 14.5 19.3 0.00 0.00 0.00 100 1012.3
20260510011505 17 314 14.5 19.3 0.00 0.00 0.00 100 1012.1
20260510011006 17 319 11.3 19.3 0.00 0.00 0.00 100 1011.9
20260510010006 17 323 11.3 19.3 0.00 0.00 0.00 100 1011.7
20260510005505 17 319 14.5 19.3 0.00 0.00 0.00 100 1011.9
20260510005005 17 315 14.5 22.5 0.00 0.00 0.00 100 1011.7
20260510004005 18 320 16.1 22.5 0.00 0.00 0.00 100 1011.5
20260510003505 18 314 11.3 22.5 0.00 0.00 0.00 100 1011.3
20260510002005 18 319 17.7 32.2 0.00 0.00 0.00 100 1011.2
20260510001505 18 303 22.5 32.2 0.00 0.00 0.00 100 1011.1
20260510001005 19 303 20.9 32.2 0.00 0.00 0.00 100 1011.0
20260510000505 19 313 19.3 32.2 0.00 0.00 0.00 100 1010.7
20260510000005 19 325 24.1 37.0 0.00 0.00 0.00 100 1010.8
20260509235006 19 301 20.9 32.2 0.00 0.00 0.00 100 1010.7
20260509234005 19 317 20.9 29.0 0.00 0.00 0.00 100 1010.4
20260509232505 20 303 24.1 37.0 0.00 0.00 0.00 100 1010.4
20260509230005 21 299 22.5 37.0 0.00 0.00 0.00 100 1009.8
20260509225505 21 306 22.5 33.8 0.00 0.00 0.00 100 1009.7
20260509223505 21 306 29.0 41.8 0.00 0.00 0.00 100 1009.4
20260509223005 22 317 27.4 37.0 0.00 0.00 0.00 100 1009.4
20260509221506 22 313 29.0 37.0 0.00 0.00 0.00 100 1009.0
20260509220005 22 286 19.3 32.2 0.00 0.00 0.00 100 1008.8
20260509215005 22 315 29.0 40.2 0.00 0.00 0.00 100 1008.8
20260509214505 22 286 17.7 40.2 0.00 0.00 0.00 100 1008.9
20260509214006 22 286 35.4 49.9 0.00 0.00 0.00 100 1008.8
20260509213505 22 301 33.8 41.8 0.00 0.00 0.00 100 1008.9
20260509213006 22 271 27.4 33.8 0.00 0.00 0.00 100 1008.8
20260509212005 22 279 25.7 32.2 0.00 0.00 0.00 100 1008.8
20260509204505 21 275 24.1 35.4 0.00 0.00 0.00 100 1008.7
20260509204005 21 257 22.5 33.8 0.00 0.00 0.00 100 1008.8
20260509203505 22 258 27.4 45.1 0.00 0.00 0.00 100 1008.9
20260509203005 22 264 24.1 35.4 0.00 0.00 0.00 100 1008.8
20260509202505 22 257 25.7 35.4 0.00 0.00 0.00 100 1008.8
20260509201505 21 272 25.7 37.0 0.00 0.00 0.00 100 1009.0
20260509195004 19 265 16.1 27.4 0.00 0.00 0.00 100 1008.8
20260509194505 19 270 22.5 27.4 0.00 0.00 0.00 100 1008.8
20260509193005 20 261 22.5 32.2 0.00 0.00 0.00 100 1008.7
20260509192004 20 274 20.9 37.0 0.00 0.00 0.00 100 1008.7
20260509191005 21 277 24.1 40.2 0.00 0.00 0.00 100 1008.6
20260509190006 21 282 33.8 46.7 0.00 0.00 0.00 100 1008.4
20260509185005 21 305 32.2 41.8 0.00 0.00 0.00 100 1008.1
20260509184505 21 277 38.6 49.9 0.00 0.00 0.00 100 1008.1
20260509182505 21 299 25.7 46.7 0.00 0.00 0.00 100 1008.1
20260509182005 21 292 25.7 41.8 0.00 0.00 0.00 100 1008.0
20260509181505 21 293 27.4 37.0 0.00 0.00 0.00 100 1007.8
20260509181005 22 282 27.4 45.1 0.00 0.00 0.00 100 1007.7
20260509180005 22 298 25.7 33.8 0.00 0.00 0.00 100 1007.7
20260509175505 21 295 25.7 35.4 0.00 0.00 0.00 100 1007.7
20260509175004 21 283 24.1 33.8 0.00 0.00 0.00 100 1007.6
20260509174504 21 300 27.4 37.0 0.00 0.00 0.00 100 1007.8
20260509174004 21 270 20.9 32.2 0.00 0.00 0.00 100 1007.6
20260509173505 21 276 24.1 32.2 0.00 0.00 0.00 100 1007.6
20260509171504 22 270 29.0 46.7 0.00 0.00 0.00 100 1007.8
20260509171004 22 292 27.4 45.1 0.00 0.00 0.00 100 1007.8
20260509170504 22 287 27.4 45.1 0.00 0.00 0.00 100 1007.8
20260509170004 22 282 22.5 45.1 0.00 0.00 0.00 100 1007.8
20260509165504 23 271 33.8 49.9 0.00 0.00 0.00 100 1007.8
20260509165005 23 274 33.8 51.5 0.00 0.00 0.00 100 1007.8
20260509164505 23 291 32.2 40.2 0.00 0.00 0.00 100 1007.7
20260509164004 22 284 29.0 45.1 0.00 0.00 0.00 100 1007.8
20260509163504 22 250 25.7 35.4 0.00 0.00 0.00 100 1007.8
20260509163005 22 250 25.7 37.0 0.00 0.00 0.00 100 1007.8
20260509162005 22 275 27.4 38.6 0.00 0.00 0.00 100 1007.8
20260509161504 22 268 24.1 32.2 0.00 0.00 0.00 100 1007.8